Regional Weather Roundup
Issued by NWS

Home | Current Version | Previous Version | Graphics & Text | Print | Product List | Glossary On
Versions: 1 2 3 4 5 6 7 8 9 10 11 12 13 14 15 16 17 18 19 20 21 22 23 24 25 26 27 28 29 30 31 32 33 34 35 36 37 38 39 40 41 42 43 44 45 46 47 48 49 50
554
ASUS44 KLIX 270001
RWRLA
LOUISIANA WEATHER ROUNDUP
NATIONAL WEATHER SERVICE NEW ORLEANS LA
600 PM CST WED NOV 26 2014

NOTE: "FAIR" INDICATES FEW OR NO CLOUDS BELOW 12,000 FEET WITH NO
      SIGNIFICANT WEATHER AND/OR OBSTRUCTIONS TO VISIBILITY.
      SKY/WX - SKY CONDITION AND SIGNIFICANT WEATHER.
      TMP - AIR TEMPERATURE.    DP   - DEWPOINT TEMPERATURE.
      RH  - RELATIVE HUMIDITY.  PRES - PRESSURE.
      HX  - HEAT INDEX.         WCI  - WIND CHILL INDEX.

*  THESE STATIONS ARE NOT NWS OR FAA STATIONS AND ARE NOT UNDER
   NWS QUALITY CONTROL.

LAZ040-048-061>063-065-066-069-270100-
SOUTHEAST LOUISIANA

CITY           SKY/WX    TMP DP  RH WIND       PRES   REMARKS
N.O. AUDUBON     N/A     60  44  57 MISG        N/A
6HR MIN TEMP:  60; 6HR MAX TEMP:  68;

N.O. INTL ARPT PTCLDY    61  41  47 SW9       30.20R
6HR MIN TEMP:  61; 6HR MAX TEMP:  69;

N.O. LAKEFRONT CLEAR     62  42  47 SW13      30.20R
6HR MIN TEMP:  62; 6HR MAX TEMP:  68;

N.O. DOWNTOWN* FAIR      63  37  39 SW9       30.20S
6HR MIN TEMP:  63; 6HR MAX TEMP:  70;

SLIDELL        CLEAR     62  41  46 SW8       30.17R
6HR MIN TEMP:  59; 6HR MAX TEMP:  65;

BATON ROUGE    CLEAR     62  37  39 SW13      30.18R
6HR MIN TEMP:  61; 6HR MAX TEMP:  70;

BOOTHVILLE     CLEAR     60  44  55 W9        30.24R
6HR MIN TEMP:  58; 6HR MAX TEMP:  62;

BELLE CHASSE   CLEAR     55  40  56 SW7       30.20R
6HR MIN TEMP:  55; 6HR MAX TEMP:  69;

BOGALUSA*        N/A     55  40  59 SW5       30.17R
6HR MIN TEMP:  52; 6HR MAX TEMP:  68;

NEW ROADS*     NOT AVBL
GONZALES*      NOT AVBL
HAMMOND*       NOT AVBL
HOUMA*         CLEAR     57  43  58 SW3       30.23R
PORT FOURCHON* CLEAR     63  48  59 W8        30.27R

$$

LAZ041-044-053-054-270100-
SOUTHWEST LOUISIANA

CITY           SKY/WX    TMP DP  RH WIND       PRES   REMARKS
LAKE CHARLES   CLEAR     61  48  62 SW7       30.21R
6HR MIN TEMP:  61; 6HR MAX TEMP:  70;

LAFAYETTE      CLEAR     62  45  53 SW13      30.21R
6HR MIN TEMP:  62; 6HR MAX TEMP:  70;

PATTERSON      CLEAR     55  46  71 SW7       30.24S
6HR MIN TEMP:  55; 6HR MAX TEMP:  70;

SALT POINT       N/A     62  54  74 SW5       30.22R
6HR MIN TEMP:  62; 6HR MAX TEMP:  69;

NEW IBERIA     CLEAR     59  45  59 SW7       30.22R
6HR MIN TEMP:  59; 6HR MAX TEMP:  71; 6HR PCP: TRACE;

CHENAULT AIRPK CLEAR     61  46  59 SW8       30.21R

$$

LAZ027-028-270100-
CENTRAL LOUISIANA

CITY           SKY/WX    TMP DP  RH WIND       PRES   REMARKS
FORT POLK      CLEAR     61  41  48 W3        30.19R
6HR MIN TEMP:  61; 6HR MAX TEMP:  69;

ALEXANDRIA INT CLEAR     58  41  53 SW5       30.16R
6HR MIN TEMP:  58; 6HR MAX TEMP:  69;

ALEXANDRIA     CLEAR     55  39  54 CALM      30.17R
6HR MIN TEMP:  54; 6HR MAX TEMP:  71;


$$

LAZ001-002-270100-
NORTHWEST LOUISIANA

CITY           SKY/WX    TMP DP  RH WIND       PRES   REMARKS
SHREVEPORT     PTCLDY    55  35  47 W7        30.18R
6HR MIN TEMP:  54; 6HR MAX TEMP:  68;

BARKSDALE AFB  CLEAR     56  32  39 NW7       30.19R
6HR MIN TEMP:  56; 6HR MAX TEMP:  67;

DTN SHREVEPORT CLEAR     59  32  36 NW7       30.19R
6HR MIN TEMP:  58; 6HR MAX TEMP:  67;


$$

LAZ014-016-270100-
NORTHEAST LOUISIANA

CITY           SKY/WX    TMP DP  RH WIND       PRES   REMARKS
MONROE         CLEAR     58  34  40 NW8       30.16R
6HR MIN TEMP:  58; 6HR MAX TEMP:  69;

TALLULAH       CLEAR     56  37  49 W6        30.12R
6HR MIN TEMP:  56; 6HR MAX TEMP:  68;


$$




USA.gov is the U.S. government's official web portal to all federal, state and local government web resources and services.